Flight Track Log - Related Links

Times and Time Zones

All times are in EDT time to prevent confusion due to time zone crossing. See the SWA286 flight status page for this flight to view local times or setup timezone preferences in your user account.

Time Position Orientation Groundspeed Altitude Reporting Facility
EDT Latitude Longitude Course Direction KTS MPH feet Rate Location/Type
Thu 03:12:13 PM 40.8167 -73.0500 221° Southwest 187 215 3,300  Level New York TRACON
Thu 03:14:34 PM 40.7783 -72.8211 102° East 279 321 10,100 2,866 Climbing Boston Center
Thu 03:15:34 PM 40.7456 -72.6947 109° East 323 372 12,900 3,174 Climbing Boston Center
Thu 03:16:35 PM 40.6581 -72.6536 160° South 331 381 16,500 3,197 Climbing Boston Center
Thu 03:17:00 PM 40.7284 -72.5389 221° Southwest  Level FlightAware Approximate
Thu 03:17:36 PM 40.5953 -72.7025 211° Southwest 280 322 19,400  Level Boston Center
Thu 03:18:36 PM 40.4972 -72.8003 217° Southwest 308 354 23,000 3,559 Climbing Boston Center
Thu 03:19:34 PM 40.4219 -72.8900 222° Southwest 345 397 26,400 1,538 Climbing Boston Center
Thu 03:21:51 PM 40.2458 -73.0939 221° Southwest 386 444 28,000 487 Climbing Washington Center
Thu 03:22:51 PM 40.1581 -73.1892 220° Southwest 391 450 28,000  Level Washington Center
Thu 03:23:51 PM 40.0725 -73.2869 221° Southwest 405 466 28,000  Level Washington Center
Thu 03:24:51 PM 39.9847 -73.3847 220° Southwest 411 473 28,000  Level Washington Center
Thu 03:25:51 PM 39.8889 -73.4906 220° Southwest 411 473 28,000  Level Washington Center
Thu 03:26:51 PM 39.8031 -73.5875 221° Southwest 417 480 28,000  Level Washington Center
Thu 03:27:51 PM 39.7253 -73.6733 220° Southwest 417 480 28,000  Level Washington Center
Thu 03:28:51 PM 39.6350 -73.7728 220° Southwest 422 486 28,000  Level Washington Center
Thu 03:29:51 PM 39.5469 -73.8692 220° Southwest 422 486 28,000  Level Washington Center
Thu 03:30:51 PM 39.4756 -73.9839 231° Southwest 422 486 28,000  Level Washington Center
Thu 03:31:51 PM 39.4125 -74.1061 236° Southwest 417 480 28,000  Level Washington Center
Thu 03:32:51 PM 39.3472 -74.2283 235° Southwest 417 480 28,000 -50 Level Washington Center
Thu 03:33:51 PM 39.2778 -74.3503 234° Southwest 422 486 27,900 -600 Descending Washington Center
Thu 03:34:51 PM 39.2164 -74.4692 236° Southwest 422 486 26,800 -1,050 Descending Washington Center
Thu 03:35:51 PM 39.1569 -74.5772 235° Southwest 403 464 25,800 -1,100 Descending Washington Center
Thu 03:36:51 PM 39.0953 -74.6903 235° Southwest 396 456 24,600 -1,350 Descending Washington Center
Thu 03:37:51 PM 39.0397 -74.8006 237° Southwest 383 441 23,100 -1,500 Descending Washington Center
Thu 03:38:51 PM 38.9822 -74.9028 234° Southwest 372 428 21,600 -1,500 Descending Washington Center
Thu 03:39:51 PM 38.9264 -75.0047 235° Southwest 361 415 20,100 -1,550 Descending Washington Center
Thu 03:40:51 PM 38.8706 -75.0983 233° Southwest 355 409 18,500 -1,500 Descending Washington Center
Thu 03:41:51 PM 38.8189 -75.2000 237° Southwest 350 403 17,100 -1,200 Descending Washington Center
Thu 03:42:51 PM 38.8025 -75.3119 259° West 319 367 16,100 -500 Descending Washington Center
Thu 03:43:51 PM 38.7964 -75.4239 266° West 319 367 16,100  Level Washington Center
Thu 03:44:51 PM 38.7903 -75.5383 266° West 319 367 16,100  Level Washington Center
Thu 03:45:51 PM 38.7819 -75.6556 265° West 325 374 16,100  Level Washington Center
Thu 03:46:51 PM 38.7756 -75.7647 266° West 325 374 16,100 -1,050 Level Washington Center
Thu 03:47:51 PM 38.7692 -75.8739 266° West 319 367 14,000 -1,700 Descending Washington Center
Thu 03:48:51 PM 38.7606 -75.9831 264° West 319 367 12,700 -1,450 Descending Washington Center
Thu 03:49:51 PM 38.7539 -76.0894 265° West 314 361 11,100 -900 Descending Washington Center
Thu 03:50:51 PM 38.7617 -76.1906 276° West 300 345 10,900 -850 Descending Washington Center
Thu 03:51:51 PM 38.8050 -76.2736 304° West 278 320 9,400 -1,550 Descending Washington Center
Thu 03:52:51 PM 38.8525 -76.3567 306° West 278 320 7,800 -1,626 Descending Washington Center
Thu 03:53:38 PM 38.8833 -76.4333 297° West 269 310 6,500 -1,556 Descending Potomac TRACON
Thu 03:54:39 PM 38.9333 -76.5000 314° West 268 308 5,000 -744 Descending Potomac TRACON
Thu 03:55:39 PM 38.9667 -76.5833 297° West 267 307 5,000 -500 Level Potomac TRACON
Thu 03:56:39 PM 39.0000 -76.6667 297° West 274 315 4,000 -545 Descending Potomac TRACON
Thu 03:57:40 PM 39.0500 -76.7500 308° West 268 308 3,900  Descending Potomac TRACON
Thu 03:58:34 PM 39.0833 -76.8333 297° West 269 310 4,000 -200 Climbing Potomac TRACON
Thu 03:59:40 PM 39.1333 -76.8500 346° North 250 288 3,500 -619 Descending Potomac TRACON
Thu 04:00:40 PM 39.1667 -76.7833 57° Northeast 225 259 2,700 -250 Descending Potomac TRACON
Thu 04:01:40 PM 39.1833 -76.7167 72° East 204 235 3,000 198 Climbing Potomac TRACON
Thu 04:02:41 PM 39.1833 -76.6500 90° East 240 276 3,100  Climbing Potomac TRACON
Thu 04:03:35 PM 39.1167 -76.7000 210° Southwest 251 289 3,000 -211 Descending Potomac TRACON
Thu 04:04:35 PM 39.1000 -76.7833 256° West 229 264 2,700 -450 Descending Potomac TRACON
Thu 04:05:35 PM 39.1500 -76.8167 333° Northwest 217 250 2,100 -400 Descending Potomac TRACON
Thu 04:06:35 PM 39.1833 -76.8000 21° North 177 204 1,900 -450 Descending Potomac TRACON
Thu 04:07:35 PM 39.1833 -76.7500 90° East 132 152 1,200 -700 Descending Potomac TRACON
Thu 04:08:35 PM 39.1833 -76.7167 90° East 125 144 500 -700 Descending Potomac TRACON

Login

Don't have an account? Register now (free) for customized features, flight alerts, and more!